User: anonymous   Login
Location: Unnamed
(48.6007°N, 2.4808°E)
Time: 09:37:12
(UTC+01:00)
Language:

METEOR M2 - Orbit

View from above orbital plane
View from above orbital plane
View from above satellite
View from above satellite

Ground track
Ground track

The orbit data is extracted from the following two-line orbital elements,

1 40069U 14037A   24063.89949274  .00000350  00000-0  18073-3 0  9991
2 40069  98.4341  62.8634 0004811 313.2143  46.8632 14.20902959500678
Epoch (UTC): 03 March 2024 21:35:16
Eccentricity: 0.0004811
inclination: 98.4341°
perigee height: 819 km
apogee height: 826 km
right ascension of ascending node: 62.8634°
argument of perigee: 313.2143°
revolutions per day: 14.20902959
mean anomaly at epoch: 46.8632°
orbit number at epoch: 50067

The dashed part of the orbit path shows where the satellite is in the earth's shadow,  

DLR